RH
72 76 74 79 70 70 59 76 94 81 85 88 100 99 97 90 84 69 76 56 57 73 87 90 84 83 86 68 68 82 82 77 93 63 52 52 60 70 58 76 65 85 84 95
76 71 74 69 63 64 65 86 84 82 91 95 97 87 89 79 61 58 54 52 49 58 74 78 72 69 57 60 61 63 57 74 91 70 52 56 66 60 62 61 72 83 85 86
65 66 70 66 63 59 68 73 94 78 83 97 92 87 63 67 54 53 49 51 48 52 63 61 67 66 56 54 54 55 60 70 76 84 74 69 72 70 66 61 84 80 88 93
63 60 61 63 60 60 69 72 90 85 97 86 98 93 67 71 76 57 58 61 64 50 65 61 63 55 54 52 51 54 56 68 70 57 58 56 62 71 72 76 61 66 84 86
72 68 60 56 61 56 63 63 74 83 80 77 66 70 74 72 69 70 67 72 70 70 74 74 68 63 58 58 53 54 64 69 74 67 51 52 51 65 69 71 67 73 67 66
72 74 62 60 62 58 59 67 68 76 71 67 72 76 70 69 56 64 66 67 64 68 68 65 60 59 50 49 53 57 64 80 90 69 65 61 54 55 64 64 65 60 66 58
61 69 58 48 56 61 63 64 64 64 76 72 72 66 69 75 72 66 64 58 58 56 54 47 48 47 47 49 50 53 62 74 91 80 67 53 43 49 52 56 61 60 66 70
54 62 58 52 48 52 60 60 64 64 77 79 66 67 68 62 62 68 63 56 57 56 54 60 62 65 53 48 48 51 57 71 77 76 76 46 48 50 56 58 60 56 65 67
60 58 61 52 51 51 55 58 62 62 61 72 76 76 66 71 73 68 57 53 57 58 70 59 57 64 58 58 57 45 56 63 70 73 60 50 41 52 51 49 63 54 58 64
70 61 58 54 53 53 52 58 62 57 58 69 71 77 76 71 73 75 70 61 56 59 71 67 70 75 55 66 60 51 68 71 68 73 72 58 48 53 49 55 35 52 55 56
78 66 66 61 59 54 48 61 60 61 55 66 65 67 70 69 72 74 65 68 64 74 71 72 71 74 65 61 56 51 56 73 76 74 71 54 52 57 52 43 54 50 55 56
69 68 68 64 57 54 52 51 56 58 59 59 63 62 61 60 64 68 67 72 73 75 82 79 80 70 74 64 56 55 67 59 62 61 58 42 50 45 45 44 46 52 52 56
75 70 70 67 60 53 46 47 57 57 60 62 63 63 62 60 59 61 66 68 64 72 66 77 82 74 75 71 73 56 54 59 67 55 40 54 44 47 49 48 49 52 53 56
78 69 71 71 69 60 56 54 55 54 59 70 62 58 61 65 68 65 59 57 62 62 65 72 83 80 65 75 66 73 57 62 65 68 57 51 48 46 47 51 51 55 59 62
81 77 71 70 69 66 58 53 53 52 51 63 55 56 61 62 62 66 68 68 68 68 71 88 82 75 78 79 82 90 65 70 65 59 42 45 46 48 50 52 55 58 61 64
77 78 74 73 70 66 62 57 52 49 53 55 85 68 70 67 65 66 66 67 66 65 70 72 73 71 67 87 90 60 48 45 42 42 38 44 48 53 54 56 58 62 65 68
73 82 82 76 75 71 66 54 46 40 47 53 68 80 73 66 66 66 65 64 63 63 67 79 74 72 73 90 91 48 35 39 43 45 47 55 53 50 51 54 60 66 68 67
72 75 71 75 76 77 75 68 56 39 47 45 94 91 70 68 67 68 67 64 66 67 66 78 75 73 83 94 72 55 48 46 48 49 50 48 48 54 57 62 63 63 63 58
57 79 75 76 76 73 75 72 64 51 45 47 88 82 77 69 74 74 71 68 86 77 84 82 77 84 89 68 58 47 44 46 48 55 55 55 55 57 60 60 62 60 52 34
64 80 83 79 75 76 72 66 59 52 50 52 77 67 92 68 76 76 78 79 94 91 81 80 94 90 61 51 52 53 46 47 49 57 67 65 65 61 58 56 55 44 32 35
84 86 78 74 64 73 64 59 65 60 70 58 60 75 86 76 88 91 80 94 96 92 82 87 90 89 75 50 48 44 44 49 46 46 39 40 42 48 55 55 44 35 35 39
76 74 70 58 67 66 67 85 77 86 79 78 76 80 73 74 79 79 84 88 91 90 84 96 95 79 41 45 48 50 55 53 48 46 42 39 45 50 52 46 37 36 40 40
82 64 58 63 73 81 81 74 86 94 72 78 82 91 69 72 75 85 87 90 94 79 95 91 81 45 34 44 51 49 51 54 52 50 47 48 50 50 45 38 37 40 40 29
63 59 74 81 91 92 85 81 80 53 59 72 68 81 76 79 85 86 81 76 79 93 100 73 82 28 37 37 55 53 51 54 57 53 50 47 45 42 39 38 40 38 28 31
61 68 84 90 66 66 66 59 68 69 58 62 70 80 71 94 91 88 87 91 93 86 72 78 24 31 30 34 49 48 50 56 58 57 52 49 48 45 39 40 39 28 30 25
75 76 93 85 85 87 83 81 49 54 64 61 63 93 93 90 92 93 92 84 76 66 86 24 23 21 22 27 39 44 49 54 58 57 56 56 54 47 42 42 29 30 25 24
100 97 79 72 70 66 64 62 59 52 66 89 86 83 70 89 98 98 85 84 76 32 22 18 19 17 17 22 36 43 46 52 58 60 62 63 56 47 45 31 28 27 22 31
Wind_Speed
13 13 11 8 10 5 4 8 3 6 16 7 3 2 2 3 6 10 4 2 4 5 7 4 3 2 3 8 3 3 5 1 3 5 4 3 3 5 3 3 1 2 3 2
13 8 9 3 4 1 5 4 4 9 15 4 3 4 3 5 3 2 0 2 1 4 5 4 2 3 4 6 4 2 1 2 4 8 5 5 4 6 4 2 3 1 4 3
14 7 9 7 6 4 8 4 3 6 8 4 2 4 4 4 8 3 3 2 1 2 3 1 3 1 1 2 1 3 1 2 3 4 4 3 6 9 10 3 4 1 2 4
14 7 4 6 3 3 5 5 1 2 3 4 2 2 3 5 7 7 15 7 6 1 3 3 3 2 2 1 3 1 2 1 3 3 3 2 3 5 10 8 0 3 5 6
12 11 3 5 4 2 4 2 2 1 2 7 3 6 6 6 4 6 5 5 7 9 5 3 4 5 3 1 4 3 3 1 2 3 2 4 3 8 8 6 7 6 3 2
9 12 7 6 6 1 3 6 3 3 5 3 3 3 2 5 2 5 7 2 2 6 3 9 11 7 3 1 1 2 2 3 3 4 5 5 4 3 2 1 3 1 2 4
7 9 6 4 7 7 7 7 3 3 3 2 0 1 2 5 4 3 4 6 2 4 11 6 1 1 3 4 4 0 2 3 2 3 4 3 4 1 1 1 1 1 3 2
5 6 5 3 6 4 2 6 5 3 1 3 4 4 2 3 7 3 2 4 4 9 5 3 4 4 5 3 2 3 2 4 2 2 1 5 3 3 3 2 4 1 5 3
5 3 8 8 7 5 2 5 5 4 2 2 3 4 3 1 2 5 3 4 6 7 3 3 1 2 2 4 8 3 4 4 3 1 1 4 3 2 3 2 4 6 6 6
8 4 10 12 7 5 2 1 4 3 2 1 2 2 2 3 2 0 4 6 4 7 3 2 0 3 1 2 2 2 3 3 2 1 2 6 4 5 4 2 4 5 4 8
9 9 8 9 3 1 5 3 4 2 3 2 1 1 3 3 3 1 6 3 4 4 4 1 2 1 3 2 4 2 3 3 3 1 1 5 8 5 6 4 5 8 7 8
7 9 8 8 7 4 3 3 5 3 2 1 1 0 1 1 1 3 4 0 1 2 2 1 1 2 1 2 3 1 3 5 3 7 5 3 15 3 6 7 7 8 9 8
8 6 6 6 5 3 3 2 1 1 2 3 3 3 2 2 3 3 2 1 1 1 2 1 1 3 3 2 5 2 3 4 3 2 2 7 10 12 9 8 7 8 8 9
9 10 5 3 3 3 3 2 2 1 1 0 3 6 5 5 4 5 5 4 3 3 3 3 2 2 4 3 4 4 6 6 4 5 8 5 11 16 13 12 9 9 8 8
10 11 10 6 3 1 0 1 2 3 3 3 4 9 9 8 6 6 6 5 4 3 3 2 3 3 2 2 1 4 9 7 5 5 9 5 4 14 14 14 12 9 9 8
12 9 9 9 7 5 3 3 2 2 2 2 1 3 5 7 7 7 7 6 5 4 3 4 4 3 3 2 3 11 18 17 18 5 9 9 5 11 11 11 10 9 8 8
12 9 8 6 9 9 6 3 1 4 3 3 3 3 3 4 8 7 7 8 6 6 4 5 4 5 6 3 5 8 14 16 18 17 13 8 12 7 11 10 10 9 8 7
14 12 8 6 7 10 11 12 6 3 4 5 2 4 2 3 4 3 5 4 5 5 4 2 4 3 5 5 15 15 11 13 15 15 16 9 7 12 11 10 10 10 9 8
15 14 9 5 8 5 6 11 11 8 6 4 4 4 4 4 2 2 2 2 1 2 1 3 1 3 6 9 8 14 14 11 12 19 14 10 10 12 12 12 12 10 9 8
15 14 5 4 4 6 3 3 4 4 7 7 5 4 1 5 3 2 2 1 1 1 3 3 3 4 24 29 28 22 13 15 12 15 13 16 16 17 16 13 10 9 8 6
19 10 7 5 2 4 3 3 3 3 3 6 4 11 3 6 3 3 2 2 1 2 4 1 3 4 5 10 16 15 17 25 19 15 10 9 9 14 15 13 11 9 8 7
17 10 8 6 4 3 1 3 3 3 5 5 6 5 4 4 4 4 4 3 2 5 1 1 4 4 9 17 15 10 4 16 18 16 11 8 9 11 12 11 10 8 7 7
15 6 7 6 4 2 6 7 4 2 7 10 7 2 4 3 4 3 3 4 5 0 1 4 5 9 16 18 9 3 5 11 14 13 10 10 10 12 11 10 9 7 7 7
5 7 4 6 5 6 6 5 5 7 6 16 14 7 1 2 1 2 4 2 3 2 2 6 3 8 16 16 7 6 7 10 10 10 10 10 10 11 10 9 7 7 7 8
7 6 6 8 9 5 5 11 7 8 17 22 9 6 3 1 2 1 2 3 4 6 5 3 6 13 17 10 6 9 11 13 14 14 14 13 12 11 10 8 7 7 8 9
6 8 3 6 4 4 9 15 12 18 24 13 5 4 3 3 3 2 7 5 7 4 4 8 10 13 12 7 8 10 11 13 14 15 15 14 14 12 10 9 8 9 8 10
8 8 16 15 4 8 18 18 16 21 22 3 5 5 9 3 2 4 5 6 4 10 9 5 9 11 13 11 11 13 15 17 17 17 18 17 15 14 13 11 9 9 9 10
Wind_Direction
38 44 41 99 132 80 67 42 39 38 18 52 42 67 159 219 247 251 291 213 100 156 184 170 202 232 246 186 196 230 222 201 285 248 258 243 220 260 265 124 218 58 107 330
40 64 45 98 158 15 35 71 57 13 9 67 17 325 272 216 15 143 324 59 209 174 168 105 164 209 223 198 206 230 346 349 334 339 358 6 2 327 299 130 71 75 117 228
45 77 61 63 113 75 20 27 39 19 36 46 20 341 13 8 358 357 7 21 93 76 58 36 134 229 284 225 225 191 101 89 164 174 227 266 329 333 353 84 75 183 11 126
48 61 24 48 20 3 17 35 58 22 347 352 304 303 4 13 9 9 25 19 16 113 64 30 33 2 356 35 15 46 93 86 24 313 307 49 327 339 353 42 3 119 190 155
40 35 7 358 48 61 38 84 113 191 283 306 325 8 358 28 355 23 2 63 7 50 76 24 3 342 38 3 339 52 12 255 59 316 350 36 360 359 4 21 28 61 89 344
48 46 52 32 27 14 88 89 52 319 350 9 54 328 348 360 22 44 52 319 59 39 325 305 297 288 307 349 242 355 73 118 66 284 342 333 350 328 10 23 24 149 178 228
42 43 59 30 35 83 92 68 0 356 325 57 315 53 91 46 13 112 354 21 72 327 327 323 10 340 341 1 16 133 122 98 95 238 4 17 246 272 280 84 33 34 41 50
51 25 20 23 5 325 13 8 16 357 44 337 16 9 84 55 51 53 27 32 3 345 4 45 13 344 350 323 322 359 70 123 65 112 179 286 290 240 188 158 276 252 148 99
76 17 351 325 319 311 260 349 22 20 85 318 327 314 345 63 4 349 322 355 350 0 60 61 109 231 239 312 332 15 84 71 117 114 174 225 236 172 135 107 276 190 180 166
111 56 336 326 306 288 216 325 351 332 24 169 348 349 326 346 7 264 322 344 0 9 39 58 154 282 230 291 285 316 341 359 169 228 252 284 229 148 121 109 247 161 185 182
127 91 41 7 6 214 218 310 324 292 312 212 223 324 341 348 360 53 338 355 357 16 43 72 266 213 259 320 244 204 193 153 220 123 259 292 154 114 169 202 153 174 174 189
153 116 96 52 31 69 157 298 309 313 304 263 226 343 347 304 351 336 5 53 351 6 52 343 316 297 331 196 282 343 265 192 201 184 218 244 192 215 212 181 179 191 201 202
206 161 125 94 46 352 264 230 211 286 348 305 242 251 276 270 252 222 144 94 2 3 338 239 256 270 125 259 252 279 267 186 228 4 262 228 225 216 210 208 216 204 210 212
218 212 197 152 75 46 352 213 185 172 284 255 255 256 264 274 278 241 230 231 223 242 242 209 188 228 186 235 255 213 220 152 202 258 273 272 241 225 222 216 221 214 205 209
230 218 219 217 222 280 24 214 179 186 193 211 256 275 252 236 239 248 263 261 266 245 219 168 227 224 193 231 297 246 193 199 183 227 216 195 213 204 205 207 210 212 212 200
246 232 215 219 235 247 287 277 296 347 297 260 330 253 233 230 235 233 232 233 246 246 262 252 257 251 231 248 248 247 221 233 235 244 227 217 203 181 194 204 204 202 203 205
237 237 230 244 235 221 225 271 312 324 301 267 302 304 219 239 226 224 221 222 221 223 229 223 230 220 211 228 234 241 236 240 234 233 214 189 198 210 206 207 198 195 196 198
218 227 238 261 268 244 240 235 246 298 241 238 145 258 298 212 213 225 214 230 223 229 251 227 214 218 209 257 239 244 246 254 228 209 208 230 218 209 199 195 193 189 193 199
209 220 235 265 273 255 245 234 231 244 240 255 185 166 224 164 175 275 275 287 335 312 293 288 275 230 230 242 249 255 247 224 203 196 210 217 213 197 192 192 193 200 200 206
203 200 218 208 206 252 261 214 228 238 213 222 233 197 202 147 125 63 330 318 274 278 252 281 229 262 265 273 275 273 274 231 221 186 196 202 202 198 196 199 204 206 207 219
181 187 194 189 192 201 221 209 198 210 262 214 213 201 162 179 124 172 162 190 320 359 268 199 279 272 250 311 306 292 257 237 233 239 248 236 233 209 197 195 198 204 214 238
179 172 158 156 177 201 101 235 305 189 233 190 171 189 195 169 168 131 150 146 65 241 315 64 271 255 284 325 327 329 245 202 202 213 228 222 207 197 194 192 195 209 235 262
166 201 165 157 146 48 187 209 262 237 192 178 157 144 172 166 188 99 119 126 217 112 35 234 232 271 313 328 304 275 188 194 199 207 206 198 194 188 193 193 202 224 252 271
229 185 221 185 180 228 196 186 188 188 169 162 144 121 127 128 33 141 107 219 80 2 272 238 254 292 329 331 276 237 213 210 218 213 205 196 191 189 194 205 225 248 262 286
222 212 229 213 206 191 207 211 172 159 155 149 125 96 132 38 77 242 73 42 251 209 231 234 262 326 329 326 242 229 224 214 208 210 207 204 204 206 213 223 246 259 280 292
230 232 277 227 151 180 186 199 184 163 160 145 132 118 88 232 157 119 223 155 224 240 216 242 301 314 324 304 236 228 222 217 214 211 211 213 215 219 226 241 250 272 285 299
220 235 220 222 247 198 196 200 195 177 164 168 141 148 202 106 118 231 192 214 219 205 207 271 308 335 341 313 255 226 218 215 215 215 215 215 215 221 230 238 257 267 289 300